Location: B�hl
(48.6968°N, 8.1352°E)
Time: 03:39:58
(UTC+00:00)

Cosmos 2322 Rocket - Pass Details

Date: 08 March 2021
Orbit: 832 x 852 km, 71.0° (Epoch: 16 April)

Event Time Altitude Azimuth Distance (km) Brightness Sun altitude
Rises 17:52:04 0° 220° (SW) 3,366 6.0 -5.7°
Reaches altitude 10° 17:54:32 10° 224° (SW) 2,437 5.3 -6.2°
Maximum altitude 18:00:02 57° 303° (WNW) 977 2.9 -7.1°
Drops below altitude 10° 18:05:35 10° 22° (NNE) 2,460 4.4 -8.0°
Sets 18:08:06 0° 27° (NNE) 3,401 5.1 -8.4°
